Volver al catálogo

STARLINK-6033

ActivoComunicacionesSSO
NORAD 56322·PAYLOAD·🇺🇸 United States

Lanzado Apr 27, 2023 desde Vandenberg Space Force Base

Loading…

Próximos Pases (próximas 24 horas)

TLE

ActualizadoSource: CelesTrak SupGP

Época: Sep 15, 2026, 02:11 UTC

1 56322C 23058F   26258.09145833  .00507590  00000+0  28085-1 0  2589
2 56322  97.2853 252.2645 0001610  86.1418 104.1307 15.13687064    14

Sigue STARLINK-6033 en tiempo real con AllMySat

Download on the App Store